2021-022H (47939 NORAD) Tracking and Keplerian Element Data

This shows tracking and keplerian element data for the satellite.

Feedback or suggestion? Click here.




ElementValue
Catalog47939
Name2021-022H
Epoch Orbit442
Epoch Day110.9588395
Epoch Year2021
RAAN14.3028
Inclination97.5611
Eccentricity0.0019464
Argument of Perigee133.3685
Mean Anonmoly356.6207
Mean Motion15.06706132
Decay Rate1.965E-05
L11 47939U 21022H 21110.95883950 .00001965 00000-0 13597-3 0 9990
L22 47939 97.5611 14.3028 0019464 133.3685 356.6207 15.06706132 4424



Live tracking and technical data element details for 2021-022H (NORAD 47939). 2021-022H can be tracked NOW for your location showing map with azimuth and elevation plus other details from your city location.







IsCatalogInMostPopularTable: catalog: 47939, numindb: 107
Update: records affected: 1



GetName: 47939 2021-022H

Hit Count: updated at: Sun, 28 May 2023 06:56:53 GMT